Weather History for Ogden Hill AFB, UT

Change the Weather History Date:

Sunday, May 25, 2014

  Actual Average Record
Temperature  
Mean Temperature 64 °F -  
Max Temperature 75 °F 72 °F 87 °F (2001)
Min Temperature 53 °F 50 °F 39 °F (1997)
Degree Days  
Heating Degree Days 2    
Growing Degree Days 14 (Base 50)    
Moisture  
Dew Point 43 °F    
Average Humidity 49    
Maximum Humidity 77    
Minimum Humidity 27    
Precipitation  
Precipitation 0.00 in - - ()
Sea Level Pressure  
Sea Level Pressure 29.93 in    
Wind  
Wind Speed 9 mph (ESE)    
Max Wind Speed 13 mph    
Max Gust Speed 24 mph    
Visibility 10 miles    
Events      
Averages and records for this station are not official NWS values.
T = Trace of Precipitation, MM = Missing Value Source: NWS Daily Summary

Daily Weather History Graph

Daily Weather History Graph

Search for Another Location

Airport:

Trip Planner

Search our weather history database for the weather conditions in past years. The results will help you decide how hot, cold, wet, or windy it might be!

Date:

Astronomy

May. 25, 2014 Rise Set
Actual Time 6:01 AM MDT 8:48 PM MDT
Civil Twilight 5:29 AM MDT 9:21 PM MDT
Nautical Twilight 4:48 AM MDT 10:01 PM MDT
Astronomical Twilight 4:01 AM MDT 10:48 PM MDT
Moon 4:10 AM MDT (5/25) 5:51 PM MDT (5/25)
Length of Visible Light 15h 51m
Length of Day
14h 47m
Waning Crescent, 10% of the Moon is Illuminated
May 25
Waning Crescent
May 28
New
Jun 5
First Quarter
Jun 12
Full
Jun 19
Last Quarter

Hourly Weather History & Observations

Time (MDT) Temp. Dew Point Humidity Pressure Visibility Wind Dir Wind Speed Gust Speed Precip Events Conditions
12:58 AM 58.5 °F 46.8 °F 65% 29.92 in 10.0 mi ESE 10.4 mph - N/A   Partly Cloudy
1:13 AM 59.0 °F 46.4 °F 63% 30.05 in 10.0 mi ESE 9.2 mph - N/A   Mostly Cloudy
1:58 AM 58.6 °F 46.9 °F 65% 29.94 in 10.0 mi ESE 9.2 mph - N/A   Mostly Cloudy
2:23 AM 59.0 °F 46.4 °F 63% 30.05 in 10.0 mi ESE 11.5 mph - N/A   Scattered Clouds
2:58 AM 57.2 °F 46.4 °F 67% 29.94 in 10.0 mi ESE 9.2 mph - N/A   Clear
3:58 AM 54.7 °F 46.6 °F 74% 29.94 in 10.0 mi ESE 5.8 mph - N/A   Clear
4:58 AM 54.9 °F 46.2 °F 73% 29.93 in 10.0 mi ESE 9.2 mph - N/A   Clear
5:58 AM 53.4 °F 45.9 °F 76% 29.94 in 10.0 mi ESE 9.2 mph - N/A   Clear
6:58 AM 53.1 °F 45.9 °F 77% 29.94 in 10.0 mi ESE 12.7 mph - N/A   Clear
7:58 AM 57.0 °F 47.1 °F 69% 29.96 in 10.0 mi ESE 10.4 mph - N/A   Clear
8:58 AM 60.3 °F 48.4 °F 65% 29.97 in 10.0 mi ESE 9.2 mph - N/A   Clear
9:58 AM 64.4 °F 48.2 °F 56% 29.97 in 10.0 mi Variable 2.3 mph - N/A   Clear
10:58 AM 66.7 °F 40.3 °F 38% 29.95 in 10.0 mi NW 8.1 mph - N/A   Clear
11:58 AM 69.8 °F 37.9 °F 31% 29.94 in 10.0 mi NNW 9.2 mph - N/A   Clear
12:58 PM 71.6 °F 35.4 °F 27% 29.92 in 10.0 mi NNW 10.4 mph - N/A   Clear
1:58 PM 72.9 °F 37.6 °F 28% 29.91 in 10.0 mi NW 9.2 mph - N/A   Clear
2:58 PM 73.9 °F 39.7 °F 29% 29.90 in 10.0 mi Variable 5.8 mph 24.2 mph N/A   Clear
3:48 PM 73.4 °F 42.8 °F 33% 30.03 in 10.0 mi WSW 12.7 mph 21.9 mph N/A   Clear
3:58 PM 73.8 °F 43.3 °F 34% 29.90 in 10.0 mi West 11.5 mph - N/A   Clear
4:58 PM 74.5 °F 41.4 °F 30% 29.88 in 10.0 mi West 12.7 mph 17.3 mph N/A   Clear
5:58 PM 74.3 °F 39.9 °F 29% 29.87 in 10.0 mi Variable 5.8 mph - N/A   Clear
6:58 PM 74.1 °F 37.6 °F 27% 29.87 in 10.0 mi West 6.9 mph - N/A   Clear
7:58 PM 70.0 °F 36.3 °F 29% 29.88 in 10.0 mi West 5.8 mph - N/A   Clear
8:58 PM 66.2 °F 38.3 °F 36% 29.89 in 10.0 mi ESE 5.8 mph - N/A   Clear
9:58 PM 65.5 °F 38.8 °F 38% 29.89 in 10.0 mi SSE 3.5 mph - N/A   Clear
10:58 PM 61.7 °F 39.7 °F 44% 29.91 in 10.0 mi ESE 10.4 mph - N/A   Clear
11:58 PM 60.3 °F 39.9 °F 47% 29.90 in 10.0 mi ESE 10.4 mph - N/A   Clear